Time,TemperatureF,DewpointF,PressureIn,WindDirection,WindDirectionDegrees,WindSpeedMPH,WindSpeedGustMPH,Humidity,HourlyPrecipIn,Conditions,Clouds,dailyrainin,SoftwareType,DateUTC
2013-10-26 00:12:00,48.0,38.0,30.01,East,90,0.0,0.0,69,0.00,,,0.07,,2013-10-26 06:12:00,
2013-10-26 00:22:00,48.0,39.0,30.01,East,90,1.0,2.0,70,0.00,,,0.07,,2013-10-26 06:22:00,
2013-10-26 00:52:00,47.0,38.0,30.01,North,0,1.0,1.0,72,0.00,,,0.07,,2013-10-26 06:52:00,
2013-10-26 01:11:00,46.0,37.0,30.01,NNW,338,0.0,0.0,72,0.00,,,0.07,,2013-10-26 07:11:00,
2013-10-26 01:22:00,46.0,38.0,30.01,NNW,338,0.0,0.0,73,0.00,,,0.07,,2013-10-26 07:22:00,
2013-10-26 01:42:00,46.0,38.0,30.00,WSW,248,1.0,1.0,74,0.00,,,0.07,,2013-10-26 07:42:00,
2013-10-26 01:52:00,45.0,37.0,30.00,East,90,1.0,2.0,74,0.00,,,0.07,,2013-10-26 07:52:00,
2013-10-26 02:22:00,45.0,38.0,29.99,ESE,104,1.0,3.0,75,0.00,,,0.05,,2013-10-26 08:22:00,
2013-10-26 02:42:00,45.0,38.0,29.99,ESE,113,1.0,1.0,75,0.00,,,0.05,,2013-10-26 08:42:00,
2013-10-26 02:52:00,44.0,37.0,29.98,ESE,113,0.0,0.0,75,0.00,,,0.05,,2013-10-26 08:52:00,
2013-10-26 03:22:00,43.0,36.0,29.98,ESE,113,0.0,1.0,76,0.00,,,0.05,,2013-10-26 09:22:00,
2013-10-26 03:43:00,43.0,36.0,29.99,ESE,113,1.0,2.0,77,0.00,,,0.05,,2013-10-26 09:43:00,
2013-10-26 03:53:00,43.0,36.0,29.99,East,90,1.0,2.0,77,0.00,,,0.05,,2013-10-26 09:53:00,
2013-10-26 04:23:00,42.0,36.0,30.00,East,90,1.0,2.0,78,0.00,,,0.05,,2013-10-26 10:23:00,
2013-10-26 04:53:00,42.0,36.0,30.01,East,90,0.0,2.0,79,0.00,,,0.05,,2013-10-26 10:53:00,
2013-10-26 05:11:00,41.0,35.0,30.01,East,100,2.0,2.0,79,0.00,,,0.05,,2013-10-26 11:11:00,
2013-10-26 05:21:00,41.0,35.0,30.01,East,90,1.0,3.0,80,0.00,,,0.05,,2013-10-26 11:21:00,
2013-10-26 05:42:00,41.0,35.0,30.01,East,90,0.0,0.0,80,0.00,,,0.05,,2013-10-26 11:42:00,
2013-10-26 05:52:00,41.0,35.0,30.02,ESE,113,0.0,0.0,80,0.00,,,0.05,,2013-10-26 11:52:00,
2013-10-26 06:12:00,41.0,35.0,30.02,SW,225,0.0,1.0,80,0.00,,,0.05,,2013-10-26 12:12:00,
2013-10-26 06:22:00,41.0,36.0,30.02,SW,225,0.0,0.0,81,0.00,,,0.02,,2013-10-26 12:22:00,
2013-10-26 06:42:00,41.0,36.0,30.03,East,90,0.0,2.0,81,0.00,,,0.02,,2013-10-26 12:42:00,
2013-10-26 06:52:00,40.0,35.0,30.03,East,90,0.0,0.0,81,0.00,,,0.02,,2013-10-26 12:52:00,
2013-10-26 07:11:00,40.0,34.0,30.03,East,90,0.0,0.0,80,0.00,,,0.02,,2013-10-26 13:11:00,
2013-10-26 07:21:00,40.0,34.0,30.03,ESE,103,1.0,2.0,80,0.00,,,0.02,,2013-10-26 13:21:00,
2013-10-26 07:42:00,40.0,34.0,30.03,SE,135,1.0,1.0,80,0.00,,,0.01,,2013-10-26 13:42:00,
2013-10-26 07:52:00,40.0,35.0,30.03,East,90,0.0,1.0,81,0.00,,,0.01,,2013-10-26 13:52:00,
2013-10-26 08:11:00,40.0,35.0,30.04,East,90,0.0,1.0,81,0.00,,,0.01,,2013-10-26 14:11:00,
2013-10-26 08:21:00,40.0,35.0,30.05,East,90,2.0,3.0,81,0.00,,,0.01,,2013-10-26 14:21:00,
2013-10-26 08:42:00,40.0,35.0,30.05,East,90,0.0,1.0,82,0.00,,,0.01,,2013-10-26 14:42:00,
2013-10-26 08:52:00,40.0,35.0,30.06,ESE,113,1.0,2.0,82,0.00,,,0.01,,2013-10-26 14:52:00,
2013-10-26 09:12:00,41.0,36.0,30.06,ESE,107,1.0,2.0,82,0.00,,,0.01,,2013-10-26 15:12:00,
2013-10-26 09:23:00,43.0,38.0,30.07,NNE,22,1.0,2.0,84,0.00,,,0.01,,2013-10-26 15:23:00,
2013-10-26 09:55:00,47.0,41.0,30.07,East,88,1.0,3.0,80,0.00,,,0.01,,2013-10-26 15:55:00,
2013-10-26 10:24:00,51.0,42.0,30.08,NNW,347,2.0,6.0,72,0.00,,,0.01,,2013-10-26 16:24:00,
2013-10-26 10:44:00,51.0,41.0,30.08,NNW,348,4.0,5.0,69,0.00,,,0.01,,2013-10-26 16:44:00,
2013-10-26 10:54:00,52.0,42.0,30.08,NW,309,3.0,5.0,69,0.00,,,0.01,,2013-10-26 16:54:00,
2013-10-26 11:12:00,53.0,43.0,30.08,NW,315,3.0,4.0,68,0.00,,,0.01,,2013-10-26 17:12:00,
2013-10-26 11:23:00,54.0,43.0,30.08,NNW,331,4.0,6.0,66,0.00,,,0.00,,2013-10-26 17:23:00,
2013-10-26 11:52:00,57.0,43.0,30.07,NNW,327,3.0,5.0,60,0.00,,,0.00,,2013-10-26 17:52:00,
2013-10-26 12:12:00,58.0,44.0,30.07,West,265,3.0,6.0,60,0.00,,,0.00,,2013-10-26 18:12:00,
2013-10-26 12:22:00,59.0,44.0,30.07,NNW,345,4.0,5.0,57,0.00,,,0.00,,2013-10-26 18:22:00,
2013-10-26 12:42:00,59.0,44.0,30.07,NNW,345,4.0,7.0,57,0.00,,,0.00,,2013-10-26 18:42:00,
2013-10-26 12:52:00,61.0,45.0,30.06,NW,315,3.0,6.0,55,0.00,,,0.00,,2013-10-26 18:52:00,
2013-10-26 13:12:00,62.0,43.0,30.06,NNW,331,6.0,7.0,50,0.00,,,0.00,,2013-10-26 19:12:00,
2013-10-26 13:22:00,63.0,44.0,30.05,NNW,332,5.0,8.0,49,0.00,,,0.00,,2013-10-26 19:22:00,
2013-10-26 13:42:00,63.0,44.0,30.05,NW,305,2.0,7.0,49,0.00,,,0.00,,2013-10-26 19:42:00,
2013-10-26 13:52:00,64.0,42.0,30.04,NW,309,4.0,6.0,44,0.00,,,0.00,,2013-10-26 19:52:00,
2013-10-26 14:22:00,66.0,42.0,30.02,West,259,4.0,5.0,42,0.00,,,0.00,,2013-10-26 20:22:00,
2013-10-26 14:43:00,66.0,42.0,30.02,WNW,290,2.0,3.0,41,0.00,,,0.00,,2013-10-26 20:43:00,
2013-10-26 14:52:00,68.0,42.0,30.00,West,264,5.0,9.0,39,0.00,,,0.00,,2013-10-26 20:52:00,
2013-10-26 15:22:00,69.0,42.0,30.01,SW,222,2.0,5.0,38,0.00,,,0.00,,2013-10-26 21:22:00,
2013-10-26 15:55:00,67.0,39.0,30.01,NNW,328,3.0,5.0,36,0.00,,,0.00,,2013-10-26 21:55:00,
2013-10-26 16:14:00,67.0,41.0,30.01,NW,317,1.0,3.0,39,0.00,,,0.00,,2013-10-26 22:14:00,
2013-10-26 16:24:00,69.0,42.0,30.01,ESE,102,1.0,3.0,38,0.00,,,0.00,,2013-10-26 22:24:00,
2013-10-26 16:54:00,67.0,41.0,30.01,NE,46,1.0,1.0,39,0.00,,,0.00,,2013-10-26 22:54:00,
2013-10-26 17:22:00,66.0,39.0,30.02,North,0,1.0,2.0,37,0.00,,,0.00,,2013-10-26 23:22:00,
2013-10-26 17:52:00,65.0,39.0,30.02,South,183,1.0,2.0,38,0.00,,,0.00,,2013-10-26 23:52:00,
2013-10-26 18:21:00,64.0,39.0,30.02,SE,135,0.0,2.0,39,0.00,,,0.00,,2013-10-27 00:21:00,
2013-10-26 18:42:00,64.0,39.0,30.02,SE,135,0.0,0.0,40,0.00,,,0.00,,2013-10-27 00:42:00,
2013-10-26 18:52:00,62.0,39.0,30.02,SE,135,0.0,0.0,42,0.00,,,0.00,,2013-10-27 00:52:00,
2013-10-26 19:11:00,61.0,40.0,30.03,SE,135,1.0,1.0,45,0.00,,,0.00,,2013-10-27 01:11:00,
2013-10-26 19:22:00,60.0,40.0,30.03,East,90,1.0,2.0,47,0.00,,,0.00,,2013-10-27 01:22:00,
2013-10-26 19:52:00,58.0,39.0,30.03,East,90,1.0,2.0,50,0.00,,,0.00,,2013-10-27 01:52:00,
2013-10-26 20:12:00,58.0,40.0,30.03,East,99,2.0,3.0,52,0.00,,,0.00,,2013-10-27 02:12:00,
2013-10-26 20:21:00,58.0,40.0,30.04,ESE,109,3.0,4.0,52,0.00,,,0.00,,2013-10-27 02:21:00,
2013-10-26 20:42:00,58.0,40.0,30.04,SE,137,1.0,2.0,52,0.00,,,0.00,,2013-10-27 02:42:00,
2013-10-26 20:52:00,58.0,40.0,30.04,ESE,113,1.0,2.0,52,0.00,,,0.00,,2013-10-27 02:52:00,
2013-10-26 21:11:00,57.0,40.0,30.04,ESE,110,1.0,2.0,52,0.00,,,0.00,,2013-10-27 03:11:00,
2013-10-26 21:22:00,57.0,39.0,30.04,WSW,251,1.0,1.0,51,0.00,,,0.00,,2013-10-27 03:22:00,
2013-10-26 21:55:00,56.0,38.0,30.05,ESE,113,1.0,2.0,51,0.00,,,0.00,,2013-10-27 03:55:00,
2013-10-26 22:24:00,54.0,37.0,30.05,SE,135,0.0,1.0,52,0.00,,,0.00,,2013-10-27 04:24:00,
2013-10-26 22:54:00,53.0,37.0,30.05,NE,45,0.0,0.0,54,0.00,,,0.00,,2013-10-27 04:54:00,
2013-10-26 23:23:00,52.0,37.0,30.04,East,90,0.0,0.0,57,0.00,,,0.00,,2013-10-27 05:23:00,
2013-10-26 23:52:00,50.0,36.0,30.03,North,0,0.0,0.0,58,0.00,,,0.00,,2013-10-27 05:52:00,